timestamp,surface_pressure_avg,surface_temp_avg,battery_voltage,lat,long
2022-07-19 00:09:00+00:00,235.2098,18.8,12.09,47.84626,-54.09684
2022-07-19 00:19:01+00:00,241.5948,18.8,12.09,47.84626,-54.09684
2022-07-19 00:29:01+00:00,243.9247,18.8,12.09,47.84626,-54.09684
2022-07-19 00:39:01+00:00,247.6614,18.7,12.09,47.84626,-54.09684
2022-07-19 00:49:01+00:00,258.6931,18.64,12.09,47.84626,-54.09684
2022-07-19 00:59:01+00:00,266.2581,18.59,12.09,47.84626,-54.09684
2022-07-19 01:09:01+00:00,265.7398,18.52,12.09,47.84626,-54.09684
2022-07-19 01:19:01+00:00,273.798,18.5,12.09,47.84626,-54.09684
2022-07-19 01:29:01+00:00,290.6064,18.5,12.09,47.84626,-54.09684
2022-07-19 01:39:01+00:00,298.3013,18.48,12.09,47.84626,-54.09684
2022-07-19 01:49:01+00:00,300.6213,18.5,12.09,47.84626,-54.09684
2022-07-19 01:59:01+00:00,314.388,18.5,12.09,47.84626,-54.09684
2022-07-19 02:09:01+00:00,325.4213,18.49,12.09,47.84626,-54.09684
2022-07-19 02:19:00+00:00,327.038,18.4,12.09,47.84626,-54.09684
2022-07-19 02:29:00+00:00,334.6879,18.4,12.09,47.84626,-54.09684
2022-07-19 02:39:00+00:00,345.6047,18.4,12.09,47.84626,-54.09684
2022-07-19 02:49:00+00:00,347.8662,18.38,12.09,47.84626,-54.09684
2022-07-19 02:59:00+00:00,344.2946,18.34,12.09,47.84626,-54.09684
2022-07-19 03:09:00+00:00,352.0262,18.39,12.09,47.84626,-54.09684
2022-07-19 03:19:00+00:00,358.9479,18.4,12.09,47.84626,-54.09684
2022-07-19 03:29:00+00:00,358.1246,18.4,12.09,47.84626,-54.09684
2022-07-19 03:39:00+00:00,354.9612,18.4,12.09,47.84626,-54.09684
2022-07-19 03:49:00+00:00,358.8562,18.45,12.09,47.84626,-54.09684
2022-07-19 03:59:00+00:00,361.4414,18.44,12.09,47.84626,-54.09684
2022-07-19 04:09:00+00:00,359.4996,18.49,12.09,47.84626,-54.09684
2022-07-19 04:19:01+00:00,358.3013,18.5,12.09,47.84626,-54.09684
2022-07-19 04:29:01+00:00,357.1312,18.5,12.09,47.84626,-54.09684
2022-07-19 04:39:01+00:00,347.3546,18.5,12.09,47.84626,-54.09684
2022-07-19 04:49:01+00:00,343.2296,18.5,12.09,47.84626,-54.09684
2022-07-19 04:59:01+00:00,347.0148,18.5,12.09,47.84626,-54.09684
2022-07-19 05:09:01+00:00,350.0896,18.5,12.09,47.84626,-54.09684
2022-07-19 05:19:01+00:00,346.5945,18.49,12.09,47.84626,-54.09684
2022-07-19 05:29:01+00:00,343.7797,18.5,12.09,47.84626,-54.09684
2022-07-19 05:39:01+00:00,340.833,18.5,12.09,47.84626,-54.09684
2022-07-19 05:49:01+00:00,335.8281,18.5,12.09,47.84626,-54.09684
2022-07-19 05:59:01+00:00,328.6396,18.5,12.09,47.84626,-54.09684
2022-07-19 06:09:01+00:00,314.0646,18.5,12.09,47.84626,-54.09684
2022-07-19 06:19:00+00:00,304.073,18.5,12.09,47.84626,-54.09684
2022-07-19 06:29:00+00:00,298.043,18.5,12.09,47.84626,-54.09684
2022-07-19 06:39:00+00:00,292.4398,18.5,12.09,47.84626,-54.09684
2022-07-19 06:49:00+00:00,280.0881,18.5,12.09,47.84626,-54.09684
2022-07-19 06:59:00+00:00,270.8181,18.5,12.09,47.84626,-54.09684
2022-07-19 07:09:00+00:00,266.3131,18.5,12.09,47.84626,-54.09684
2022-07-19 07:19:00+00:00,256.8381,18.55,12.09,47.84626,-54.09684
2022-07-19 07:29:00+00:00,246.0714,18.6,12.09,47.84626,-54.09684
2022-07-19 07:39:00+00:00,240.1864,18.61,12.09,47.84626,-54.09684
2022-07-19 07:49:00+00:00,232.8615,18.64,12.09,47.84626,-54.09684
2022-07-19 07:59:00+00:00,216.4731,18.68,12.09,47.84626,-54.09684
2022-07-19 08:09:00+00:00,208.8848,18.69,12.09,47.84626,-54.09684
2022-07-19 08:19:01+00:00,209.7965,18.67,12.09,47.84626,-54.09684
2022-07-19 08:29:01+00:00,205.6414,18.67,12.09,47.84626,-54.09684
2022-07-19 08:39:01+00:00,197.5182,18.68,12.09,47.84626,-54.09684
2022-07-19 08:49:01+00:00,196.3881,18.68,12.09,47.84626,-54.09684
2022-07-19 08:59:01+00:00,198.1865,18.68,12.09,47.84626,-54.09684
2022-07-19 09:09:01+00:00,194.3498,18.69,12.09,47.84626,-54.09684
2022-07-19 09:19:00+00:00,192.9948,18.7,12.01,47.84626,-54.09684
2022-07-19 09:29:00+00:00,199.7698,18.7,12.01,47.84626,-54.09684
2022-07-19 09:39:00+00:00,205.1281,18.7,12.01,47.84626,-54.09684
2022-07-19 09:49:00+00:00,203.2481,18.7,12.01,47.84626,-54.09684
2022-07-19 09:59:00+00:00,200.8297,18.7,12.01,47.84626,-54.09684
2022-07-19 10:09:00+00:00,204.3931,18.7,12.01,47.84626,-54.09684
2022-07-19 10:19:00+00:00,207.0364,18.7,12.01,47.84626,-54.09684
2022-07-19 10:29:00+00:00,208.6381,18.7,12.01,47.84626,-54.09684
2022-07-19 10:39:00+00:00,211.5431,18.7,12.01,47.84626,-54.09684
2022-07-19 10:49:00+00:00,213.2614,18.7,12.01,47.84626,-54.09684
2022-07-19 10:59:00+00:00,216.5164,18.69,12.01,47.84626,-54.09684
2022-07-19 11:09:00+00:00,221.5514,18.68,12.01,47.84626,-54.09684
2022-07-19 11:19:01+00:00,223.5997,18.65,12.01,47.84626,-54.09684
2022-07-19 11:29:01+00:00,227.9731,18.6,12.01,47.84626,-54.09684
2022-07-19 11:39:01+00:00,236.3297,18.6,12.01,47.84626,-54.09684
2022-07-19 11:49:01+00:00,238.6548,18.6,12.01,47.84626,-54.09684
2022-07-19 11:59:01+00:00,238.2247,18.6,12.01,47.84626,-54.09684
2022-07-19 12:09:01+00:00,240.2764,18.6,12.01,47.84626,-54.09684
2022-07-19 12:19:01+00:00,244.5448,18.6,12.01,47.84626,-54.09684
2022-07-19 12:29:01+00:00,244.7731,18.57,12.01,47.84626,-54.09684
2022-07-19 12:39:01+00:00,245.5781,18.53,12.01,47.84626,-54.09684
2022-07-19 12:49:01+00:00,248.5798,18.5,12.01,47.84626,-54.09684
2022-07-19 12:59:01+00:00,255.5098,18.5,12.01,47.84626,-54.09684
2022-07-19 13:09:01+00:00,260.3597,18.5,12.01,47.84626,-54.09684
2022-07-19 13:19:00+00:00,266.1497,18.5,12.09,47.84626,-54.09684
2022-07-19 13:29:00+00:00,270.1781,18.54,12.09,47.84626,-54.09684
2022-07-19 13:39:00+00:00,276.7614,18.58,12.09,47.84626,-54.09684
2022-07-19 13:49:00+00:00,282.6598,18.58,12.09,47.84626,-54.09684
2022-07-19 13:59:00+00:00,289.6913,18.59,12.09,47.84626,-54.09684
2022-07-19 14:09:00+00:00,295.0197,18.6,12.09,47.84626,-54.09684
2022-07-19 14:19:00+00:00,300.428,18.6,12.09,47.84626,-54.09684
2022-07-19 14:29:00+00:00,308.4864,18.6,12.09,47.84626,-54.09684
2022-07-19 14:39:00+00:00,314.4597,18.6,12.09,47.84626,-54.09684
2022-07-19 14:49:00+00:00,319.5363,18.6,12.09,47.84626,-54.09684
2022-07-19 14:59:00+00:00,326.6313,18.61,12.09,47.84626,-54.09684
2022-07-19 15:09:00+00:00,334.2047,18.6,12.09,47.84626,-54.09684
2022-07-19 15:19:00+00:00,337.5147,18.6,12.01,47.84626,-54.09684
2022-07-19 15:29:00+00:00,338.4513,18.63,12.01,47.84626,-54.09684
2022-07-19 15:39:00+00:00,340.7796,18.7,12.01,47.84626,-54.09684
2022-07-19 15:49:00+00:00,341.8096,18.7,12.01,47.84626,-54.09684
2022-07-19 15:59:00+00:00,341.8413,18.62,12.01,47.84626,-54.09684
2022-07-19 16:09:00+00:00,341.548,18.65,12.01,47.84626,-54.09684
2022-07-19 16:19:00+00:00,337.3529,18.69,12.01,47.84626,-54.09684
2022-07-19 16:29:00+00:00,333.1613,18.7,12.01,47.84626,-54.09684
2022-07-19 16:39:00+00:00,334.48800000000006,18.7,12.01,47.84626,-54.09684
2022-07-19 16:49:00+00:00,337.6913,18.66,12.01,47.84626,-54.09684
2022-07-19 16:59:00+00:00,335.7297,18.6,12.01,47.84626,-54.09684
2022-07-19 17:09:00+00:00,335.7847,18.63,12.01,47.84626,-54.09684
2022-07-19 17:19:00+00:00,340.7363,18.66,12.09,47.84626,-54.09684
2022-07-19 17:29:00+00:00,340.0696,18.62,12.09,47.84626,-54.09684
2022-07-19 17:39:00+00:00,334.1447,18.68,12.09,47.84626,-54.09684
2022-07-19 17:49:00+00:00,334.7079,18.67,12.09,47.84626,-54.09684
2022-07-19 17:59:00+00:00,335.0297,18.6,12.09,47.84626,-54.09684
2022-07-19 18:09:00+00:00,329.5913,18.64,12.09,47.84626,-54.09684
2022-07-19 18:19:00+00:00,325.2497,18.6,12.01,47.84626,-54.09684
2022-07-19 18:29:00+00:00,323.843,18.6,12.01,47.84626,-54.09684
2022-07-19 18:39:00+00:00,321.0646,18.57,12.01,47.84626,-54.09684
2022-07-19 18:49:00+00:00,312.4263,18.59,12.01,47.84626,-54.09684
2022-07-19 18:59:00+00:00,306.6263,18.6,12.01,47.84626,-54.09684
2022-07-19 19:09:00+00:00,301.3848,18.6,12.01,47.84626,-54.09684
2022-07-19 19:19:01+00:00,290.7131,18.62,12.01,47.84626,-54.09684
2022-07-19 19:29:01+00:00,275.7747,18.64,12.01,47.84626,-54.09684
2022-07-19 19:39:01+00:00,266.5114,18.66,12.01,47.84626,-54.09684
2022-07-19 19:49:01+00:00,259.2981,18.66,12.01,47.84626,-54.09684
2022-07-19 19:59:01+00:00,249.2364,18.67,12.01,47.84626,-54.09684
2022-07-19 20:09:01+00:00,239.7681,18.68,12.01,47.84626,-54.09684
2022-07-19 20:19:00+00:00,236.1147,18.69,12.01,47.84626,-54.09684
2022-07-19 20:29:00+00:00,230.8614,18.69,12.01,47.84626,-54.09684
2022-07-19 20:39:00+00:00,223.5048,18.69,12.01,47.84626,-54.09684
2022-07-19 20:49:00+00:00,215.2031,18.7,12.01,47.84626,-54.09684
2022-07-19 20:59:00+00:00,209.8431,18.7,12.01,47.84626,-54.09684
2022-07-19 21:09:00+00:00,211.3431,18.7,12.01,47.84626,-54.09684
2022-07-19 21:19:01+00:00,209.8698,18.7,12.01,47.84626,-54.09684
2022-07-19 21:29:01+00:00,206.3647,18.7,12.01,47.84626,-54.09684
2022-07-19 21:39:01+00:00,210.3765,18.7,12.01,47.84626,-54.09684
2022-07-19 21:49:01+00:00,214.5665,18.7,12.01,47.84626,-54.09684
2022-07-19 21:59:01+00:00,210.9831,18.69,12.01,47.84626,-54.09684
2022-07-19 22:09:01+00:00,210.0881,18.7,12.01,47.84626,-54.09684
2022-07-19 22:19:01+00:00,217.7097,18.69,12.01,47.84626,-54.09684
2022-07-19 22:29:01+00:00,219.0165,18.7,12.01,47.84626,-54.09684
2022-07-19 22:39:01+00:00,217.5098,18.69,12.01,47.84626,-54.09684
2022-07-19 22:49:01+00:00,220.2464,18.69,12.01,47.84626,-54.09684
2022-07-19 22:59:01+00:00,225.2781,18.7,12.01,47.84626,-54.09684
2022-07-19 23:09:01+00:00,227.0631,18.7,12.01,47.84626,-54.09684
2022-07-19 23:19:00+00:00,230.4031,18.7,12.01,47.84626,-54.09684
2022-07-19 23:29:00+00:00,237.4397,18.7,12.01,47.84626,-54.09684
2022-07-19 23:39:00+00:00,239.2765,18.7,12.01,47.84626,-54.09684
2022-07-19 23:49:00+00:00,236.3497,18.7,12.01,47.84626,-54.09684
2022-07-19 23:59:00+00:00,237.4014,18.71,12.01,47.84626,-54.09684
